Saint Paul, MN (55101)

2:05 AM CST on February 24, 2017 (GMT -0600)
Mounds Park, East Metro | | Change Station

Elev 850 ft 44.95 °N, 93.06 °W | Updated 6 seconds ago

Overcast
Overcast
28.9 °F
Feels Like 25 °F
N
3.6
Wind Variable Wind from NNE
Gusts 7.4 mph

Today
High -- | Low -- °F
--% Chance of Precip.
Yesterday
High -- | Low -- °F
Precip. -- in
Pressure 29.88 in
Visibility 10.0 miles
Clouds Overcast 9000 ft
Windchill 25 °F
Dew Point 17 °F
Humidity 61%
Rainfall 0.00 in
Snow Depth Not available.
6:58 AM 5:53 PM
Waning Crescent, 6% visible
METAR KSTP 240753Z AUTO 02012KT 10SM OVC090 M02/M06 A2986 RMK AO2 SLP116 T10171061
Pressure 29.88 in
Visibility 10.0 miles
Clouds Overcast 9000 ft
Windchill 25 °F
Dew Point 17 °F
Humidity 61%
Rainfall 0.00 in
Snow Depth Not available.
6:58 AM 5:53 PM
Waning Crescent, 6% visible
METAR KSTP 240753Z AUTO 02012KT 10SM OVC090 M02/M06 A2986 RMK AO2 SLP116 T10171061

Get Your Daily Forecast Email!

Thanks for signing up!

Be on the lookout for a verification email in your inbox.

You'll start receiving the daily forecast at 8 AM.

×

10-Day Weather Forecast

Almanac

Astronomy

Feb. 24, 2017 Rise Set
Actual Time
Civil Twilight
Nautical Twilight
Astronomical Twilight
Moon
Length of Visible Light
Length of Day
Tomorrow will be .
, % of the Moon is Illuminated

Today's Extremes

State Highs State Lows

Community

WunderPhotos

Upload Photos

1,962,540 photos uploaded!

WunderBlog® & News

Nearby

Air Quality

  Air Quality AQ Index Pollutant
Not available.

Snow Depth

Station Depth Elevation

Earthquake Activity

City Distance Mag. Time & Date
Minimum magnitude displayed is 2.5.

Coastal Water Temperatures

Place Temperature

Stations

Nearby Weather Stations

Station Location Temp. Windchill Dew Point Humidity Wind Precip. Elev Updated Type
                   

Watches & Warnings

There are currently no watches in effect.